Weather History for Bluefield, WV

Change the Weather History Date:

Thursday, August 1, 2013

  Actual Average Record
Temperature  
Mean Temperature 72 °F 73 °F  
Max Temperature 79 °F 81 °F 90 °F (1995)
Min Temperature 65 °F 65 °F 55 °F (1992)
Degree Days  
Heating Degree Days 0 0  
Month to date heating degree days 0 0  
Since 1 June heating degree days 0 24  
Since 1 July heating degree days 0 2  
Cooling Degree Days 7 8  
Month to date cooling degree days 7 8  
Year to date cooling degree days 587 513  
Since 1 June cooling degree days 473 422  
Growing Degree Days 22 (Base 50)    
Moisture  
Dew Point 63 °F    
Average Humidity 74    
Maximum Humidity 87    
Minimum Humidity 60    
Precipitation  
Precipitation 0.24 in 0.11 in 0.61 in (1985)
Month to date precipitation 0.24 0.11  
Year to date precipitation 27.72 25.24  
Snow  
Snow 0.00 in - - ()
Month to date snowfall 0.0  
Since 1 June snowfall 0.0  
Since 1 July snowfall 0.0  
Snow Depth 0.00 in    
Sea Level Pressure  
Sea Level Pressure 30.01 in    
Wind  
Wind Speed 6 mph (West)    
Max Wind Speed 13 mph    
Max Gust Speed 20 mph    
Visibility 6 miles    
Events Rain    
T = Trace of Precipitation, MM = Missing Value Source: NWS Daily Summary

Daily Weather History Graph

Daily Weather History Graph

Search for Another Location

Airport:

Trip Planner

Search our weather history database for the weather conditions in past years. The results will help you decide how hot, cold, wet, or windy it might be!

Date:

Astronomy

Aug. 01, 2013 Rise Set
Actual Time 6:29 AM EDT 8:32 PM EDT
Civil Twilight 6:00 AM EDT 9:00 PM EDT
Nautical Twilight 5:25 AM EDT 9:35 PM EDT
Astronomical Twilight 4:47 AM EDT 10:13 PM EDT
Moon 2:05 AM EDT (8/1) 4:39 PM EDT (8/1)
Length of Visible Light 15h 00m
Length of Day
14h 02m
Waning Crescent, 23% of the Moon is Illuminated
Aug 1
Waning Crescent
Aug 6
New
Aug 14
First Quarter
Aug 20
Full
Aug 28
Last Quarter

Hourly Weather History & Observations

Time (EDT) Temp. Dew Point Humidity Pressure Visibility Wind Dir Wind Speed Gust Speed Precip Events Conditions
12:03 AM 66.2 °F 62.6 °F 88% 30.08 in 6.0 mi Calm Calm - 0.01 in Rain Light Rain
12:12 AM 66.2 °F 62.6 °F 88% 30.08 in 4.0 mi Calm Calm - 0.03 in Rain Light Rain
12:52 AM 66.9 °F 62.1 °F 84% 29.99 in 10.0 mi Calm Calm - 0.04 in   Overcast
1:03 AM 66.2 °F 62.6 °F 88% 30.07 in 1.8 mi Calm Calm - 0.08 in Rain Heavy Rain
1:13 AM 66.2 °F 62.6 °F 88% 30.07 in 3.0 mi WSW 4.6 mph - 0.10 in Rain Light Rain
1:27 AM 66.2 °F 62.6 °F 88% 30.07 in 3.0 mi Calm Calm - 0.11 in Rain Light Rain
1:35 AM 66.2 °F 62.6 °F 88% 30.06 in 6.0 mi Calm Calm - 0.11 in   Overcast
1:44 AM 66.2 °F 62.6 °F 88% 30.06 in 4.0 mi Calm Calm - 0.11 in Rain Light Rain
1:52 AM 66.9 °F 62.1 °F 84% 29.97 in 2.5 mi Calm Calm - 0.11 in Rain Light Rain
2:28 AM 66.2 °F 62.6 °F 88% 30.05 in 4.0 mi Calm Calm - 0.01 in   Haze
2:39 AM 66.2 °F 62.6 °F 88% 30.04 in 4.0 mi Calm Calm - 0.02 in   Haze
2:52 AM 66.9 °F 62.1 °F 84% 29.95 in 5.0 mi SW 3.5 mph - 0.02 in   Haze
3:11 AM 66.2 °F 62.6 °F 88% 30.03 in 8.0 mi West 3.5 mph - N/A   Overcast
3:43 AM 66.2 °F 62.6 °F 88% 30.03 in 6.0 mi WSW 4.6 mph - N/A   Haze
3:52 AM 66.9 °F 63.0 °F 87% 29.95 in 5.0 mi WSW 4.6 mph - N/A   Overcast
4:01 AM 66.2 °F 62.6 °F 88% 30.03 in 4.0 mi WSW 3.5 mph - N/A   Overcast
4:18 AM 66.2 °F 62.6 °F 88% 30.03 in 1.8 mi SW 3.5 mph - N/A   Overcast
4:27 AM 66.2 °F 62.6 °F 88% 30.03 in 2.5 mi WSW 3.5 mph - N/A   Overcast
4:34 AM 66.2 °F 62.6 °F 88% 30.03 in 4.0 mi WSW 3.5 mph - N/A   Overcast
4:52 AM 66.9 °F 63.0 °F 87% 29.93 in 6.0 mi WSW 3.5 mph - N/A   Overcast
5:27 AM 66.2 °F 62.6 °F 88% 30.03 in 2.0 mi WSW 4.6 mph - N/A   Overcast
5:34 AM 66.2 °F 62.6 °F 88% 30.02 in 1.0 mi West 3.5 mph - N/A   Mist
5:43 AM 66.2 °F 62.6 °F 88% 30.02 in 0.8 mi West 4.6 mph - N/A   Mist
5:52 AM 66.9 °F 63.0 °F 87% 29.93 in 0.8 mi Calm Calm - N/A   Mist
6:52 AM 66.9 °F 63.0 °F 87% 29.94 in 0.8 mi WNW 5.8 mph - 0.01 in Rain Light Rain
7:04 AM 66.2 °F 62.6 °F 88% 30.03 in 1.2 mi WNW 4.6 mph - 0.00 in   Overcast
7:09 AM 66.2 °F 62.6 °F 88% 30.03 in 0.8 mi WNW 5.8 mph - 0.00 in   Mist
7:25 AM 66.2 °F 62.6 °F 88% 30.03 in 1.0 mi WNW 5.8 mph - 0.00 in   Mist
7:47 AM 66.2 °F 62.6 °F 88% 30.04 in 0.8 mi WNW 4.6 mph - 0.00 in   Mist
7:52 AM 66.9 °F 63.0 °F 87% 29.95 in 0.8 mi WNW 6.9 mph - 0.00 in   Mist
8:00 AM 66.2 °F 62.6 °F 88% 30.04 in 1.2 mi West 4.6 mph - N/A   Overcast
8:22 AM 66.2 °F 62.6 °F 88% 30.05 in 3.0 mi Variable 4.6 mph - 0.01 in   Overcast
8:52 AM 66.9 °F 63.0 °F 87% 29.96 in 4.0 mi WNW 8.1 mph - 0.01 in   Overcast
9:16 AM 66.2 °F 62.6 °F 88% 30.06 in 5.0 mi Variable 4.6 mph - 0.00 in Rain Light Rain
9:52 AM 68.0 °F 63.0 °F 84% 29.97 in 10.0 mi WNW 8.1 mph - 0.00 in   Overcast
10:52 AM 70.0 °F 64.0 °F 81% 29.98 in 10.0 mi Variable 4.6 mph - N/A   Overcast
11:07 AM 69.8 °F 64.4 °F 83% 30.07 in 10.0 mi WNW 6.9 mph - 0.00 in Rain Light Rain
11:32 AM 71.6 °F 62.6 °F 73% 30.07 in 10.0 mi WNW 5.8 mph - 0.00 in   Overcast
11:52 AM 70.0 °F 63.0 °F 78% 29.98 in 10.0 mi Variable 5.8 mph - 0.01 in Rain Light Rain
12:32 PM 73.4 °F 62.6 °F 69% 30.07 in 10.0 mi Variable 4.6 mph - 0.00 in   Overcast
12:52 PM 73.0 °F 63.0 °F 71% 29.97 in 10.0 mi WNW 6.9 mph - 0.00 in   Overcast
1:41 PM 73.4 °F 62.6 °F 69% 30.06 in 10.0 mi West 9.2 mph - N/A   Overcast
1:48 PM 75.2 °F 62.6 °F 65% 30.06 in 10.0 mi WNW 8.1 mph - N/A   Overcast
1:52 PM 73.9 °F 62.1 °F 66% 29.96 in 10.0 mi WNW 8.1 mph - N/A   Overcast
2:52 PM 75.9 °F 63.0 °F 64% 29.93 in 10.0 mi West 10.4 mph 17.3 mph N/A   Mostly Cloudy
3:52 PM 75.0 °F 62.1 °F 64% 29.94 in 10.0 mi West 9.2 mph 19.6 mph N/A   Scattered Clouds
4:52 PM 75.0 °F 62.1 °F 64% 29.93 in 10.0 mi NW 10.4 mph - 0.01 in   Scattered Clouds
5:52 PM 77.0 °F 62.1 °F 60% 29.93 in 10.0 mi WNW 10.4 mph - N/A   Mostly Cloudy
6:52 PM 75.9 °F 62.1 °F 62% 29.92 in 10.0 mi West 9.2 mph - N/A   Clear
7:52 PM 73.0 °F 62.1 °F 68% 29.95 in 10.0 mi West 5.8 mph - N/A   Partly Cloudy
8:52 PM 70.0 °F 61.0 °F 73% 29.96 in 10.0 mi WNW 4.6 mph - N/A   Clear
9:50 PM 69.8 °F 62.6 °F 78% 30.08 in 10.0 mi Calm Calm - N/A   Overcast
9:52 PM 70.0 °F 62.1 °F 76% 29.98 in 10.0 mi Calm Calm - N/A   Overcast
10:41 PM 68.0 °F 62.6 °F 83% 30.08 in 2.5 mi Calm Calm - 0.10 in Rain Rain
10:47 PM 68.0 °F 62.6 °F 83% 30.08 in 7.0 mi WNW 3.5 mph - 0.10 in Rain Light Rain
10:52 PM 68.0 °F 63.0 °F 84% 29.98 in 10.0 mi Calm Calm - 0.10 in Rain Light Rain
11:19 PM 68.0 °F 62.6 °F 83% 30.09 in 10.0 mi Calm Calm - N/A   Overcast
11:52 PM 68.0 °F 62.1 °F 81% 29.99 in 10.0 mi WSW 4.6 mph - N/A   Overcast